Year,Month,Day,Hour,Minute,Value (Times are PST for windgust in km/hr)
2011,09,29,00,07,1.60
2011,09,29,00,18,1.60
2011,09,29,00,19,1.60
2011,09,29,00,20,1.60
2011,09,29,00,21,1.60
2011,09,29,00,22,4.80
2011,09,29,00,23,6.40
2011,09,29,00,24,6.40
2011,09,29,00,25,6.40
2011,09,29,00,26,1.60
2011,09,29,00,27,1.60
2011,09,29,00,28,4.80
2011,09,29,00,29,3.20
2011,09,29,00,30,8.10
2011,09,29,00,31,8.10
2011,09,29,00,32,9.60
2011,09,29,00,33,9.60
2011,09,29,00,34,11.30
2011,09,29,00,35,16.10
2011,09,29,00,36,8.10
2011,09,29,00,37,14.50
2011,09,29,00,38,6.40
2011,09,29,00,39,6.40
2011,09,29,00,40,9.60
2011,09,29,00,41,9.60
2011,09,29,00,42,6.40
2011,09,29,00,43,9.60
2011,09,29,00,44,8.10
2011,09,29,00,45,9.60
2011,09,29,00,46,8.10
2011,09,29,00,47,8.10
2011,09,29,00,48,8.10
2011,09,29,00,49,4.80
2011,09,29,00,50,6.40
2011,09,29,00,51,8.10
2011,09,29,00,52,6.40
2011,09,29,00,53,6.40
2011,09,29,00,54,1.60
2011,09,29,00,55,4.80
2011,09,29,00,56,4.80
2011,09,29,00,57,4.80
2011,09,29,00,58,4.80
2011,09,29,00,59,8.10
2011,09,29,01,00,8.10
2011,09,29,01,01,8.10
2011,09,29,01,02,6.40
2011,09,29,01,03,4.80
2011,09,29,01,04,4.80
2011,09,29,01,05,8.10
2011,09,29,01,06,6.40
2011,09,29,01,07,8.10
2011,09,29,01,08,6.40
2011,09,29,01,09,6.40
2011,09,29,01,10,6.40
2011,09,29,01,11,8.10
2011,09,29,01,12,11.30
2011,09,29,01,13,8.10
2011,09,29,01,14,8.10
2011,09,29,01,15,8.10
2011,09,29,01,16,9.60
2011,09,29,01,17,9.60
2011,09,29,01,18,8.10
2011,09,29,01,19,8.10
2011,09,29,01,20,8.10
2011,09,29,01,21,6.40
2011,09,29,01,22,9.60
2011,09,29,01,23,9.60
2011,09,29,01,24,9.60
2011,09,29,01,25,9.60
2011,09,29,01,26,9.60
2011,09,29,01,27,9.60
2011,09,29,01,28,6.40
2011,09,29,01,29,8.10
2011,09,29,01,30,6.40
2011,09,29,01,31,8.10
2011,09,29,01,32,6.40
2011,09,29,01,33,8.10
2011,09,29,01,34,8.10
2011,09,29,01,35,8.10
2011,09,29,01,36,8.10
2011,09,29,01,37,8.10
2011,09,29,01,38,8.10
2011,09,29,01,39,9.60
2011,09,29,01,40,8.10
2011,09,29,01,41,8.10
2011,09,29,01,42,8.10
2011,09,29,01,43,8.10
2011,09,29,01,44,8.10
2011,09,29,01,45,6.40
2011,09,29,01,46,6.40
2011,09,29,01,47,8.10
2011,09,29,01,48,8.10
2011,09,29,01,49,6.40
2011,09,29,01,50,4.80
2011,09,29,01,51,4.80
2011,09,29,01,52,8.10
2011,09,29,01,53,6.40
2011,09,29,01,54,6.40
2011,09,29,01,55,9.60
2011,09,29,01,56,9.60
2011,09,29,01,57,8.10
2011,09,29,01,58,6.40
2011,09,29,01,59,8.10
2011,09,29,02,00,9.60
2011,09,29,02,01,8.10
2011,09,29,02,02,8.10
2011,09,29,02,03,8.10
2011,09,29,02,04,11.30
2011,09,29,02,05,14.50
2011,09,29,02,06,12.90
2011,09,29,02,07,14.50
2011,09,29,02,08,12.90
2011,09,29,02,09,12.90
2011,09,29,02,10,9.60
2011,09,29,02,11,9.60
2011,09,29,02,12,11.30
2011,09,29,02,13,8.10
2011,09,29,02,14,9.60
2011,09,29,02,15,8.10
2011,09,29,02,16,8.10
2011,09,29,02,17,8.10
2011,09,29,02,18,6.40
2011,09,29,02,19,8.10
2011,09,29,02,20,8.10
2011,09,29,02,21,8.10
2011,09,29,02,22,11.30
2011,09,29,02,23,9.60
2011,09,29,02,24,6.40
2011,09,29,02,25,9.60
2011,09,29,02,26,11.30
2011,09,29,02,27,9.60
2011,09,29,02,28,9.60
2011,09,29,02,29,8.10
2011,09,29,02,30,9.60
2011,09,29,02,31,9.60
2011,09,29,02,32,9.60
2011,09,29,02,33,8.10
2011,09,29,02,34,11.30
2011,09,29,02,35,9.60
2011,09,29,02,36,6.40
2011,09,29,02,37,6.40
2011,09,29,02,38,4.80
2011,09,29,02,39,9.60
2011,09,29,02,40,12.90
2011,09,29,02,41,14.50
2011,09,29,02,42,11.30
2011,09,29,02,43,11.30
2011,09,29,02,44,8.10
2011,09,29,02,45,12.90
2011,09,29,02,46,14.50
2011,09,29,02,47,14.50
2011,09,29,02,48,12.90
2011,09,29,02,49,16.10
2011,09,29,02,50,16.10
2011,09,29,02,51,16.10
2011,09,29,02,52,14.50
2011,09,29,02,53,14.50
2011,09,29,02,54,16.10
2011,09,29,02,55,14.50
2011,09,29,02,56,16.10
2011,09,29,02,57,12.90
2011,09,29,02,58,14.50
2011,09,29,02,59,8.10
2011,09,29,03,00,14.50
2011,09,29,03,01,11.30
2011,09,29,03,02,9.60
2011,09,29,03,03,11.30
2011,09,29,03,04,9.60
2011,09,29,03,05,9.60
2011,09,29,03,06,8.10
2011,09,29,03,07,9.60
2011,09,29,03,08,9.60
2011,09,29,03,09,12.90
2011,09,29,03,10,11.30
2011,09,29,03,11,8.10
2011,09,29,03,12,8.10
2011,09,29,03,13,6.40
2011,09,29,03,14,4.80
2011,09,29,03,15,4.80
2011,09,29,03,16,1.60
2011,09,29,03,17,3.20
2011,09,29,03,18,3.20
2011,09,29,03,19,3.20
2011,09,29,03,20,1.60
2011,09,29,03,25,1.60
2011,09,29,03,26,3.20
2011,09,29,03,27,4.80
2011,09,29,03,28,3.20
2011,09,29,03,29,4.80
2011,09,29,03,30,6.40
2011,09,29,03,31,8.10
2011,09,29,03,32,9.60
2011,09,29,03,33,9.60
2011,09,29,03,34,16.10
2011,09,29,03,35,16.10
2011,09,29,03,36,16.10
2011,09,29,03,37,14.50
2011,09,29,03,38,12.90
2011,09,29,03,39,11.30
2011,09,29,03,40,16.10
2011,09,29,03,41,16.10
2011,09,29,03,42,9.60
2011,09,29,03,43,8.10
2011,09,29,03,44,8.10
2011,09,29,03,45,9.60
2011,09,29,03,46,8.10
2011,09,29,03,47,11.30
2011,09,29,03,48,9.60
2011,09,29,03,49,9.60
2011,09,29,03,50,9.60
2011,09,29,03,51,9.60
2011,09,29,03,52,11.30
2011,09,29,03,53,9.60
2011,09,29,03,54,17.70
2011,09,29,03,55,16.10
2011,09,29,03,56,14.50
2011,09,29,03,57,11.30
2011,09,29,03,58,11.30
2011,09,29,03,59,12.90
2011,09,29,04,00,11.30
2011,09,29,04,01,14.50
2011,09,29,04,02,11.30
2011,09,29,04,03,8.10
2011,09,29,04,04,9.60
2011,09,29,04,05,11.30
2011,09,29,04,06,8.10
2011,09,29,04,07,14.50
2011,09,29,04,08,14.50
2011,09,29,04,09,11.30
2011,09,29,04,10,9.60
2011,09,29,04,11,9.60
2011,09,29,04,12,8.10
2011,09,29,04,13,11.30
2011,09,29,04,14,8.10
2011,09,29,04,15,11.30
2011,09,29,04,16,14.50
2011,09,29,04,17,9.60
2011,09,29,04,18,9.60
2011,09,29,04,19,11.30
2011,09,29,04,20,9.60
2011,09,29,04,21,11.30
2011,09,29,04,22,6.40
2011,09,29,04,23,9.60
2011,09,29,04,24,8.10
2011,09,29,04,25,8.10
2011,09,29,04,26,11.30
2011,09,29,04,27,8.10
2011,09,29,04,28,9.60
2011,09,29,04,29,11.30
2011,09,29,04,30,8.10
2011,09,29,04,31,8.10
2011,09,29,04,32,8.10
2011,09,29,04,33,11.30
2011,09,29,04,34,9.60
2011,09,29,04,35,6.40
2011,09,29,04,36,4.80
2011,09,29,04,37,8.10
2011,09,29,04,38,6.40
2011,09,29,04,39,4.80
2011,09,29,04,40,9.60
2011,09,29,04,41,8.10
2011,09,29,04,42,6.40
2011,09,29,04,43,4.80
2011,09,29,04,44,8.10
2011,09,29,04,45,9.60
2011,09,29,04,46,9.60
2011,09,29,04,47,6.40
2011,09,29,04,48,8.10
2011,09,29,04,49,6.40
2011,09,29,04,50,8.10
2011,09,29,04,51,8.10
2011,09,29,04,52,8.10
2011,09,29,04,53,6.40
2011,09,29,04,54,8.10
2011,09,29,04,55,11.30
2011,09,29,04,56,8.10
2011,09,29,04,57,6.40
2011,09,29,04,58,14.50
2011,09,29,04,59,11.30
2011,09,29,05,00,14.50
2011,09,29,05,01,9.60
2011,09,29,05,02,6.40
2011,09,29,05,03,6.40
2011,09,29,05,04,6.40
2011,09,29,05,05,8.10
2011,09,29,05,06,8.10
2011,09,29,05,07,8.10
2011,09,29,05,08,11.30
2011,09,29,05,09,9.60
2011,09,29,05,10,9.60
2011,09,29,05,11,8.10
2011,09,29,05,12,6.40
2011,09,29,05,13,9.60
2011,09,29,05,14,6.40
2011,09,29,05,15,8.10
2011,09,29,05,16,8.10
2011,09,29,05,17,8.10
2011,09,29,05,18,11.30
2011,09,29,05,19,9.60
2011,09,29,05,20,9.60
2011,09,29,05,21,4.80
2011,09,29,05,22,8.10
2011,09,29,05,23,8.10
2011,09,29,05,24,8.10
2011,09,29,05,25,9.60
2011,09,29,05,26,14.50
2011,09,29,05,27,16.10
2011,09,29,05,28,14.50
2011,09,29,05,29,14.50
2011,09,29,05,30,11.30
2011,09,29,05,31,14.50
2011,09,29,05,32,11.30
2011,09,29,05,33,12.90
2011,09,29,05,34,11.30
2011,09,29,05,35,12.90
2011,09,29,05,36,14.50
2011,09,29,05,37,14.50
2011,09,29,05,38,11.30
2011,09,29,05,39,11.30
2011,09,29,05,40,16.10
2011,09,29,05,41,9.60
2011,09,29,05,42,11.30
2011,09,29,05,43,9.60
2011,09,29,05,44,8.10
2011,09,29,05,45,8.10
2011,09,29,05,46,8.10
2011,09,29,05,47,9.60
2011,09,29,05,48,8.10
2011,09,29,05,49,9.60
2011,09,29,05,50,9.60
2011,09,29,05,51,8.10
2011,09,29,05,52,9.60
2011,09,29,05,53,9.60
2011,09,29,05,54,14.50
2011,09,29,05,55,11.30
2011,09,29,05,56,8.10
2011,09,29,05,57,11.30
2011,09,29,05,58,9.60
2011,09,29,05,59,11.30
2011,09,29,06,00,9.60
2011,09,29,06,01,14.50
2011,09,29,06,02,11.30
2011,09,29,06,03,14.50
2011,09,29,06,04,11.30
2011,09,29,06,05,6.40
2011,09,29,06,06,6.40
2011,09,29,06,07,8.10
2011,09,29,06,08,8.10
2011,09,29,06,09,8.10
2011,09,29,06,10,8.10
2011,09,29,06,11,8.10
2011,09,29,06,12,11.30
2011,09,29,06,13,8.10
2011,09,29,06,14,11.30
2011,09,29,06,15,9.60
2011,09,29,06,16,8.10
2011,09,29,06,17,11.30
2011,09,29,06,18,11.30
2011,09,29,06,19,8.10
2011,09,29,06,20,9.60
2011,09,29,06,21,9.60
2011,09,29,06,22,8.10
2011,09,29,06,23,9.60
2011,09,29,06,24,11.30
2011,09,29,06,25,11.30
2011,09,29,06,26,14.50
2011,09,29,06,27,17.70
2011,09,29,06,28,14.50
2011,09,29,06,29,11.30
2011,09,29,06,30,14.50
2011,09,29,06,31,14.50
2011,09,29,06,32,11.30
2011,09,29,06,33,14.50
2011,09,29,06,34,11.30
2011,09,29,06,35,11.30
2011,09,29,06,36,8.10
2011,09,29,06,37,8.10
2011,09,29,06,38,9.60
2011,09,29,06,39,9.60
2011,09,29,06,40,14.50
2011,09,29,06,41,11.30
2011,09,29,06,42,11.30
2011,09,29,06,43,12.90
2011,09,29,06,44,14.50
2011,09,29,06,45,9.60
2011,09,29,06,46,14.50
2011,09,29,06,47,11.30
2011,09,29,06,48,9.60
2011,09,29,06,49,11.30
2011,09,29,06,50,11.30
2011,09,29,06,51,11.30
2011,09,29,06,52,8.10
2011,09,29,06,53,9.60
2011,09,29,06,54,11.30
2011,09,29,06,55,9.60
2011,09,29,06,56,12.90
2011,09,29,06,57,9.60
2011,09,29,06,58,9.60
2011,09,29,06,59,11.30
2011,09,29,07,00,9.60
2011,09,29,07,01,9.60
2011,09,29,07,02,8.10
2011,09,29,07,03,11.30
2011,09,29,07,04,9.60
2011,09,29,07,05,11.30
2011,09,29,07,06,11.30
2011,09,29,07,07,9.60
2011,09,29,07,08,9.60
2011,09,29,07,09,11.30
2011,09,29,07,10,12.90
2011,09,29,07,11,14.50
2011,09,29,07,12,11.30
2011,09,29,07,13,16.10
2011,09,29,07,14,11.30
2011,09,29,07,15,14.50
2011,09,29,07,16,9.60
2011,09,29,07,17,9.60
2011,09,29,07,18,11.30
2011,09,29,07,19,16.10
2011,09,29,07,20,8.10
2011,09,29,07,21,14.50
2011,09,29,07,22,14.50
2011,09,29,07,23,12.90
2011,09,29,07,24,11.30
2011,09,29,07,25,14.50
2011,09,29,07,26,16.10
2011,09,29,07,27,11.30
2011,09,29,07,28,9.60
2011,09,29,07,29,9.60
2011,09,29,07,30,9.60
2011,09,29,07,31,14.50
2011,09,29,07,32,11.30
2011,09,29,07,33,16.10
2011,09,29,07,34,16.10
2011,09,29,07,35,11.30
2011,09,29,07,36,11.30
2011,09,29,07,37,17.70
2011,09,29,07,38,16.10
2011,09,29,07,39,11.30
2011,09,29,07,40,9.60
2011,09,29,07,41,11.30
2011,09,29,07,42,16.10
2011,09,29,07,43,14.50
2011,09,29,07,44,17.70
2011,09,29,07,45,11.30
2011,09,29,07,46,9.60
2011,09,29,07,47,11.30
2011,09,29,07,48,9.60
2011,09,29,07,49,9.60
2011,09,29,07,50,9.60
2011,09,29,07,51,14.50
2011,09,29,07,52,11.30
2011,09,29,07,53,19.30
2011,09,29,07,54,20.90
2011,09,29,07,55,20.90
2011,09,29,07,56,12.90
2011,09,29,07,57,19.30
2011,09,29,07,58,19.30
2011,09,29,07,59,17.70
2011,09,29,08,00,14.50
2011,09,29,08,01,17.70
2011,09,29,08,02,16.10
2011,09,29,08,03,11.30
2011,09,29,08,04,14.50
2011,09,29,08,05,19.30
2011,09,29,08,06,19.30
2011,09,29,08,07,17.70
2011,09,29,08,08,20.90
2011,09,29,08,09,19.30
2011,09,29,08,10,16.10
2011,09,29,08,11,20.90
2011,09,29,08,12,20.90
2011,09,29,08,13,19.30
2011,09,29,08,14,16.10
2011,09,29,08,15,16.10
2011,09,29,08,16,17.70
2011,09,29,08,17,17.70
2011,09,29,08,18,19.30
2011,09,29,08,19,19.30
2011,09,29,08,20,20.90
2011,09,29,08,21,16.10
2011,09,29,08,22,20.90
2011,09,29,08,23,17.70
2011,09,29,08,24,17.70
2011,09,29,08,25,20.90
2011,09,29,08,26,17.70
2011,09,29,08,27,16.10
2011,09,29,08,28,22.50
2011,09,29,08,29,16.10
2011,09,29,08,30,17.70
2011,09,29,08,31,19.30
2011,09,29,08,32,16.10
2011,09,29,08,33,16.10
2011,09,29,08,34,16.10
2011,09,29,08,35,12.90
2011,09,29,08,36,17.70
2011,09,29,08,37,16.10
2011,09,29,08,38,16.10
2011,09,29,08,39,16.10
2011,09,29,08,40,11.30
2011,09,29,08,41,17.70
2011,09,29,08,42,14.50
2011,09,29,08,43,14.50
2011,09,29,08,44,9.60
2011,09,29,08,45,14.50
2011,09,29,08,46,17.70
2011,09,29,08,47,17.70
2011,09,29,08,48,12.90
2011,09,29,08,49,14.50
2011,09,29,08,50,14.50
2011,09,29,08,51,11.30
2011,09,29,08,52,17.70
2011,09,29,08,53,16.10
2011,09,29,08,54,17.70
2011,09,29,08,55,16.10
2011,09,29,08,56,16.10
2011,09,29,08,57,16.10
2011,09,29,08,58,17.70
2011,09,29,08,59,19.30
2011,09,29,09,00,14.50
2011,09,29,09,01,14.50
2011,09,29,09,02,17.70
2011,09,29,09,03,19.30
2011,09,29,09,04,16.10
2011,09,29,09,05,19.30
2011,09,29,09,06,19.30
2011,09,29,09,07,16.10
2011,09,29,09,08,17.70
2011,09,29,09,09,17.70
2011,09,29,09,10,11.30
2011,09,29,09,11,22.50
2011,09,29,09,12,16.10
2011,09,29,09,13,14.50
2011,09,29,09,14,20.90
2011,09,29,09,15,17.70
2011,09,29,09,16,16.10
2011,09,29,09,17,16.10
2011,09,29,09,18,19.30
2011,09,29,09,19,14.50
2011,09,29,09,20,19.30
2011,09,29,09,21,17.70
2011,09,29,09,22,16.10
2011,09,29,09,23,19.30
2011,09,29,09,24,19.30
2011,09,29,09,25,22.50
2011,09,29,09,26,22.50
2011,09,29,09,27,20.90
2011,09,29,09,28,19.30
2011,09,29,09,29,17.70
2011,09,29,09,30,22.50
2011,09,29,09,31,22.50
2011,09,29,09,32,17.70
2011,09,29,09,33,12.90
2011,09,29,09,34,11.30
2011,09,29,09,35,17.70
2011,09,29,09,36,16.10
2011,09,29,09,37,14.50
2011,09,29,09,38,24.20
2011,09,29,09,39,22.50
2011,09,29,09,40,19.30
2011,09,29,09,41,17.70
2011,09,29,09,42,16.10
2011,09,29,09,43,17.70
2011,09,29,09,44,17.70
2011,09,29,09,45,20.90
2011,09,29,09,46,22.50
2011,09,29,09,47,19.30
2011,09,29,09,48,17.70
2011,09,29,09,49,19.30
2011,09,29,09,50,19.30
2011,09,29,09,51,22.50
2011,09,29,09,52,22.50
2011,09,29,09,53,19.30
2011,09,29,09,54,16.10
2011,09,29,09,55,22.50
2011,09,29,09,56,19.30
2011,09,29,09,57,22.50
2011,09,29,09,58,19.30
2011,09,29,09,59,20.90
2011,09,29,10,00,22.50
2011,09,29,10,01,22.50
2011,09,29,10,02,20.90
2011,09,29,10,03,22.50
2011,09,29,10,04,20.90
2011,09,29,10,05,22.50
2011,09,29,10,06,19.30
2011,09,29,10,07,19.30
2011,09,29,10,08,20.90
2011,09,29,10,09,19.30
2011,09,29,10,10,24.20
2011,09,29,10,11,25.70
2011,09,29,10,12,24.20
2011,09,29,10,13,22.50
2011,09,29,10,14,27.40
2011,09,29,10,15,17.70
2011,09,29,10,16,19.30
2011,09,29,10,17,19.30
2011,09,29,10,18,19.30
2011,09,29,10,19,22.50
2011,09,29,10,20,20.90
2011,09,29,10,21,19.30
2011,09,29,10,22,19.30
2011,09,29,10,23,24.20
2011,09,29,10,24,16.10
2011,09,29,10,25,27.40
2011,09,29,10,26,17.70
2011,09,29,10,27,27.40
2011,09,29,10,28,29.00
2011,09,29,10,29,19.30
2011,09,29,10,30,25.70
2011,09,29,10,31,20.90
2011,09,29,10,32,19.30
2011,09,29,10,33,20.90
2011,09,29,10,34,20.90
2011,09,29,10,35,20.90
2011,09,29,10,36,27.40
2011,09,29,10,37,22.50
2011,09,29,10,38,24.20
2011,09,29,10,39,30.60
2011,09,29,10,40,27.40
2011,09,29,10,41,22.50
2011,09,29,10,42,25.70
2011,09,29,10,43,27.40
2011,09,29,10,44,24.20
2011,09,29,10,45,24.20
2011,09,29,10,46,24.20
2011,09,29,10,47,20.90
2011,09,29,10,48,19.30
2011,09,29,10,49,20.90
2011,09,29,10,50,20.90
2011,09,29,10,51,27.40
2011,09,29,10,52,25.70
2011,09,29,10,53,20.90
2011,09,29,10,54,17.70
2011,09,29,10,55,25.70
2011,09,29,10,56,24.20
2011,09,29,10,57,24.20
2011,09,29,10,58,24.20
2011,09,29,10,59,19.30
2011,09,29,11,00,20.90
2011,09,29,11,01,19.30
2011,09,29,11,02,14.50
2011,09,29,11,03,17.70
2011,09,29,11,04,17.70
2011,09,29,11,05,19.30
2011,09,29,11,06,19.30
2011,09,29,11,07,19.30
2011,09,29,11,08,19.30
2011,09,29,11,09,19.30
2011,09,29,11,10,24.20
2011,09,29,11,11,17.70
2011,09,29,11,12,14.50
2011,09,29,11,13,17.70
2011,09,29,11,14,16.10
2011,09,29,11,15,20.90
2011,09,29,11,16,19.30
2011,09,29,11,17,19.30
2011,09,29,11,18,25.70
2011,09,29,11,19,17.70
2011,09,29,11,20,22.50
2011,09,29,11,21,16.10
2011,09,29,11,22,22.50
2011,09,29,11,23,20.90
2011,09,29,11,24,17.70
2011,09,29,11,25,22.50
2011,09,29,11,26,22.50
2011,09,29,11,27,20.90
2011,09,29,11,28,17.70
2011,09,29,11,29,19.30
2011,09,29,11,30,19.30
2011,09,29,11,31,17.70
2011,09,29,11,32,17.70
2011,09,29,11,33,20.90
2011,09,29,11,34,20.90
2011,09,29,11,35,20.90
2011,09,29,11,36,17.70
2011,09,29,11,37,20.90
2011,09,29,11,38,22.50
2011,09,29,11,39,19.30
2011,09,29,11,40,16.10
2011,09,29,11,41,19.30
2011,09,29,11,42,22.50
2011,09,29,11,43,19.30
2011,09,29,11,44,17.70
2011,09,29,11,45,20.90
2011,09,29,11,46,24.20
2011,09,29,11,47,16.10
2011,09,29,11,48,20.90
2011,09,29,11,49,22.50
2011,09,29,11,50,24.20
2011,09,29,11,51,24.20
2011,09,29,11,52,25.70
2011,09,29,11,53,22.50
2011,09,29,11,54,14.50
2011,09,29,11,55,22.50
2011,09,29,11,56,20.90
2011,09,29,11,57,19.30
2011,09,29,11,58,14.50
2011,09,29,11,59,16.10
2011,09,29,12,00,22.50
2011,09,29,12,01,17.70
2011,09,29,12,02,19.30
2011,09,29,12,03,17.70
2011,09,29,12,04,24.20
2011,09,29,12,05,17.70
2011,09,29,12,06,20.90
2011,09,29,12,07,16.10
2011,09,29,12,08,17.70
2011,09,29,12,09,22.50
2011,09,29,12,10,24.20
2011,09,29,12,11,19.30
2011,09,29,12,12,22.50
2011,09,29,12,13,17.70
2011,09,29,12,14,17.70
2011,09,29,12,15,22.50
2011,09,29,12,16,25.70
2011,09,29,12,17,17.70
2011,09,29,12,18,24.20
2011,09,29,12,19,20.90
2011,09,29,12,20,19.30
2011,09,29,12,21,16.10
2011,09,29,12,22,19.30
2011,09,29,12,23,17.70
2011,09,29,12,24,14.50
2011,09,29,12,25,11.30
2011,09,29,12,26,11.30
2011,09,29,12,27,19.30
2011,09,29,12,28,14.50
2011,09,29,12,29,16.10
2011,09,29,12,30,19.30
2011,09,29,12,31,16.10
2011,09,29,12,32,19.30
2011,09,29,12,33,17.70
2011,09,29,12,34,20.90
2011,09,29,12,35,16.10
2011,09,29,12,36,20.90
2011,09,29,12,37,16.10
2011,09,29,12,38,19.30
2011,09,29,12,39,17.70
2011,09,29,12,40,16.10
2011,09,29,12,41,20.90
2011,09,29,12,42,17.70
2011,09,29,12,43,16.10
2011,09,29,12,44,14.50
2011,09,29,12,45,25.70
2011,09,29,12,46,20.90
2011,09,29,12,47,19.30
2011,09,29,12,48,16.10
2011,09,29,12,49,16.10
2011,09,29,12,50,19.30
2011,09,29,12,51,17.70
2011,09,29,12,52,17.70
2011,09,29,12,53,14.50
2011,09,29,12,54,20.90
2011,09,29,12,55,17.70
2011,09,29,12,56,17.70
2011,09,29,12,57,16.10
2011,09,29,12,58,20.90
2011,09,29,12,59,12.90
2011,09,29,13,00,14.50
2011,09,29,13,01,16.10
2011,09,29,13,02,14.50
2011,09,29,13,03,11.30
2011,09,29,13,04,20.90
2011,09,29,13,05,22.50
2011,09,29,13,06,19.30
2011,09,29,13,07,14.50
2011,09,29,13,08,17.70
2011,09,29,13,09,16.10
2011,09,29,13,10,22.50
2011,09,29,13,11,19.30
2011,09,29,13,12,22.50
2011,09,29,13,13,24.20
2011,09,29,13,14,17.70
2011,09,29,13,15,19.30
2011,09,29,13,16,19.30
2011,09,29,13,17,19.30
2011,09,29,13,18,19.30
2011,09,29,13,19,17.70
2011,09,29,13,20,16.10
2011,09,29,13,21,19.30
2011,09,29,13,22,22.50
2011,09,29,13,23,17.70
2011,09,29,13,24,22.50
2011,09,29,13,25,19.30
2011,09,29,13,26,20.90
2011,09,29,13,27,20.90
2011,09,29,13,28,17.70
2011,09,29,13,29,16.10
2011,09,29,13,30,19.30
2011,09,29,13,31,16.10
2011,09,29,13,32,19.30
2011,09,29,13,33,19.30
2011,09,29,13,34,16.10
2011,09,29,13,35,16.10
2011,09,29,13,36,17.70
2011,09,29,13,37,12.90
2011,09,29,13,38,14.50
2011,09,29,13,39,12.90
2011,09,29,13,40,17.70
2011,09,29,13,41,17.70
2011,09,29,13,42,14.50
2011,09,29,13,43,17.70
2011,09,29,13,44,17.70
2011,09,29,13,45,16.10
2011,09,29,13,46,17.70
2011,09,29,13,47,20.90
2011,09,29,13,48,12.90
2011,09,29,13,49,17.70
2011,09,29,13,50,19.30
2011,09,29,13,51,19.30
2011,09,29,13,52,19.30
2011,09,29,13,53,19.30
2011,09,29,13,54,17.70
2011,09,29,13,55,19.30
2011,09,29,13,56,12.90
2011,09,29,13,57,17.70
2011,09,29,13,58,11.30
2011,09,29,13,59,19.30
2011,09,29,14,00,16.10
2011,09,29,14,01,17.70
2011,09,29,14,02,16.10
2011,09,29,14,03,20.90
2011,09,29,14,04,17.70
2011,09,29,14,05,16.10
2011,09,29,14,06,16.10
2011,09,29,14,07,17.70
2011,09,29,14,08,16.10
2011,09,29,14,09,14.50
2011,09,29,14,10,14.50
2011,09,29,14,11,17.70
2011,09,29,14,12,19.30
2011,09,29,14,13,19.30
2011,09,29,14,14,19.30
2011,09,29,14,15,19.30
2011,09,29,14,16,20.90
2011,09,29,14,17,20.90
2011,09,29,14,18,14.50
2011,09,29,14,19,19.30
2011,09,29,14,20,20.90
2011,09,29,14,21,20.90
2011,09,29,14,22,17.70
2011,09,29,14,23,14.50
2011,09,29,14,24,12.90
2011,09,29,14,25,16.10
2011,09,29,14,26,16.10
2011,09,29,14,27,19.30
2011,09,29,14,28,16.10
2011,09,29,14,29,19.30
2011,09,29,14,30,19.30
2011,09,29,14,31,16.10
2011,09,29,14,32,16.10
2011,09,29,14,33,14.50
2011,09,29,14,34,20.90
2011,09,29,14,35,14.50
2011,09,29,14,36,9.60
2011,09,29,14,37,16.10
2011,09,29,14,38,17.70
2011,09,29,14,39,17.70
2011,09,29,14,40,17.70
2011,09,29,14,41,14.50
2011,09,29,14,42,16.10
2011,09,29,14,43,16.10
2011,09,29,14,44,20.90
2011,09,29,14,45,19.30
2011,09,29,14,46,19.30
2011,09,29,14,47,19.30
2011,09,29,14,48,20.90
2011,09,29,14,49,14.50
2011,09,29,14,50,19.30
2011,09,29,14,51,16.10
2011,09,29,14,52,20.90
2011,09,29,14,53,19.30
2011,09,29,14,54,11.30
2011,09,29,14,55,19.30
2011,09,29,14,56,22.50
2011,09,29,14,57,22.50
2011,09,29,14,58,22.50
2011,09,29,14,59,17.70
2011,09,29,15,00,19.30
2011,09,29,15,01,12.90
2011,09,29,15,02,16.10
2011,09,29,15,03,20.90
2011,09,29,15,04,19.30
2011,09,29,15,05,17.70
2011,09,29,15,06,14.50
2011,09,29,15,07,17.70
2011,09,29,15,08,19.30
2011,09,29,15,09,12.90
2011,09,29,15,10,9.60
2011,09,29,15,11,9.60
2011,09,29,15,12,16.10
2011,09,29,15,13,17.70
2011,09,29,15,14,16.10
2011,09,29,15,15,14.50
2011,09,29,15,16,17.70
2011,09,29,15,17,14.50
2011,09,29,15,18,9.60
2011,09,29,15,19,12.90
2011,09,29,15,20,19.30
2011,09,29,15,21,17.70
2011,09,29,15,22,16.10
2011,09,29,15,23,20.90
2011,09,29,15,24,19.30
2011,09,29,15,25,17.70
2011,09,29,15,26,16.10
2011,09,29,15,27,16.10
2011,09,29,15,28,16.10
2011,09,29,15,29,11.30
2011,09,29,15,30,16.10
2011,09,29,15,31,14.50
2011,09,29,15,32,17.70
2011,09,29,15,33,16.10
2011,09,29,15,34,11.30
2011,09,29,15,35,11.30
2011,09,29,15,36,6.40
2011,09,29,15,37,11.30
2011,09,29,15,38,11.30
2011,09,29,15,39,19.30
2011,09,29,15,40,16.10
2011,09,29,15,41,14.50
2011,09,29,15,42,14.50
2011,09,29,15,43,11.30
2011,09,29,15,44,11.30
2011,09,29,15,45,14.50
2011,09,29,15,46,17.70
2011,09,29,15,47,17.70
2011,09,29,15,48,14.50
2011,09,29,15,49,11.30
2011,09,29,15,50,11.30
2011,09,29,15,51,9.60
2011,09,29,15,52,14.50
2011,09,29,15,53,16.10
2011,09,29,15,54,9.60
2011,09,29,15,55,9.60
2011,09,29,15,56,11.30
2011,09,29,15,57,9.60
2011,09,29,15,58,11.30
2011,09,29,15,59,9.60
2011,09,29,16,00,11.30
2011,09,29,16,01,11.30
2011,09,29,16,02,9.60
2011,09,29,16,03,8.10
2011,09,29,16,04,8.10
2011,09,29,16,05,11.30
2011,09,29,16,06,12.90
2011,09,29,16,07,11.30
2011,09,29,16,08,11.30
2011,09,29,16,09,8.10
2011,09,29,16,10,9.60
2011,09,29,16,11,11.30
2011,09,29,16,12,9.60
2011,09,29,16,13,11.30
2011,09,29,16,14,11.30
2011,09,29,16,15,11.30
2011,09,29,16,16,11.30
2011,09,29,16,17,11.30
2011,09,29,16,18,11.30
2011,09,29,16,19,8.10
2011,09,29,16,20,8.10
2011,09,29,16,21,11.30
2011,09,29,16,22,11.30
2011,09,29,16,23,8.10
2011,09,29,16,24,9.60
2011,09,29,16,25,6.40
2011,09,29,16,26,12.90
2011,09,29,16,27,11.30
2011,09,29,16,28,9.60
2011,09,29,16,29,9.60
2011,09,29,16,30,4.80
2011,09,29,16,31,6.40
2011,09,29,16,32,8.10
2011,09,29,16,33,11.30
2011,09,29,16,34,8.10
2011,09,29,16,35,9.60
2011,09,29,16,36,8.10
2011,09,29,16,37,8.10
2011,09,29,16,38,9.60
2011,09,29,16,39,9.60
2011,09,29,16,40,9.60
2011,09,29,16,41,9.60
2011,09,29,16,42,8.10
2011,09,29,16,43,11.30
2011,09,29,16,44,6.40
2011,09,29,16,45,6.40
2011,09,29,16,46,6.40
2011,09,29,16,47,11.30
2011,09,29,16,48,11.30
2011,09,29,16,49,9.60
2011,09,29,16,50,9.60
2011,09,29,16,51,8.10
2011,09,29,16,52,4.80
2011,09,29,16,53,8.10
2011,09,29,16,54,6.40
2011,09,29,16,55,9.60
2011,09,29,16,56,6.40
2011,09,29,16,57,8.10
2011,09,29,16,58,6.40
2011,09,29,16,59,4.80
2011,09,29,17,00,8.10
2011,09,29,17,01,11.30
2011,09,29,17,02,8.10
2011,09,29,17,03,8.10
2011,09,29,17,04,8.10
2011,09,29,17,05,4.80
2011,09,29,17,06,4.80
2011,09,29,17,07,3.20
2011,09,29,17,08,4.80
2011,09,29,17,09,4.80
2011,09,29,17,10,3.20
2011,09,29,17,11,6.40
2011,09,29,17,12,6.40
2011,09,29,17,13,3.20
2011,09,29,17,14,4.80
2011,09,29,17,15,6.40
2011,09,29,17,16,4.80
2011,09,29,17,17,4.80
2011,09,29,17,18,3.20
2011,09,29,17,20,1.60
2011,09,29,17,21,1.60
2011,09,29,17,22,1.60
2011,09,29,17,23,1.60
2011,09,29,17,24,1.60
2011,09,29,17,25,1.60
2011,09,29,17,26,1.60
2011,09,29,17,28,1.60
2011,09,29,17,29,1.60
2011,09,29,17,30,1.60
2011,09,29,17,32,1.60
2011,09,29,17,33,1.60
2011,09,29,17,36,1.60
2011,09,29,17,37,3.20
2011,09,29,17,38,3.20
2011,09,29,17,41,1.60
2011,09,29,17,49,1.60
2011,09,29,17,52,1.60
2011,09,29,17,53,1.60
2011,09,29,17,54,4.80
2011,09,29,17,55,8.10
2011,09,29,17,56,6.40
2011,09,29,17,57,4.80
2011,09,29,17,58,6.40
2011,09,29,17,59,6.40
2011,09,29,18,00,6.40
2011,09,29,18,01,6.40
2011,09,29,18,02,6.40
2011,09,29,18,03,6.40
2011,09,29,18,04,6.40
2011,09,29,18,05,3.20
2011,09,29,18,06,4.80
2011,09,29,18,07,4.80
2011,09,29,18,08,6.40
2011,09,29,18,09,8.10
2011,09,29,18,10,8.10
2011,09,29,18,11,8.10
2011,09,29,18,12,3.20
2011,09,29,18,13,6.40